Regional Weather Roundup
Issued by NWS Charleston, SC

Current Version | Previous Version | Graphics & Text | Print | Product List | Glossary On
Versions: 1 2 3 4 5 6 7 8 9 10 11 12 13 14 15 16 17 18 19 20 21 22 23 24 25 26 27 28 29 30 31 32 33 34 35 36 37 38 39 40 41 42 43 44 45 46 47 48 49 50
788 ASUS42 KCHS 240727 RWRCHS REGIONAL WEATHER ROUNDUP NATIONAL WEATHER SERVICE CHARLESTON SC 300 AM EDT MON APR 24 2017 NOTE: "FAIR" INDICATES FEW OR NO CLOUDS BELOW 12,000 FEET WITH NO SIGNIFICANT WEATHER AND/OR OBSTRUCTIONS TO VISIBILITY. NOT ALL STATIONS ARE QUALITY CONTROLLED. USE DATA WITH CAUTION... ESPECIALLY DEWPOINT OBSERVATIONS. SCZ027-030-031-034>040-042>050-240800- ...SOUTHEAST SOUTH CAROLINA... CITY SKY/WX TMP DP RH WIND PRES REMARKS N CHARLESTON CLOUDY 74 68 81 S20 29.70F THUNDER WATERFRONT PRK N/A 74 71 90 S15 29.69F JOHNS ISLAND PTSUNNY 73 72 94 S13 29.70F PINOPOLIS N/A 72 70 94 E5 29.63F MONCKS CORNER TSTM 72 68 88 W3 29.72R SUMMERVILLE CLOUDY 70 68 94 S5 29.72F BEAUFORT MCAS MOCLDY 73 71 93 S9G20 29.70F BEAUFORT ARPT CLOUDY 72 70 94 S15G23 29.69F HILTON HEAD IS MOCLDY 72 70 94 S12G22 29.71F WALTERBORO CLOUDY 70 68 94 S5 29.71F ALLENDALE CLOUDY 68 68 100 CALM 29.68F ...SOUTHERN MIDLANDS AND PEE DEE... CITY SKY/WX TMP DP RH WIND PRES REMARKS GEORGETOWN PTSUNNY 68 68 100 SE6 29.75F KINGSTREE CLOUDY 63 61 94 NE7 29.75S ORANGEBURG LGT RAIN 66 65 96 VRB5 29.72F BARNWELL CLOUDY 64 64 100 N9 29.71F AIKEN CLOUDY 54 54 100 N12 29.77F MANNING TSTM 64 63 94 W12G26 29.76R COLUMBIA HVY RAIN 60 60 100 NW7 29.74F FOG SUMTER HVY RAIN 61 61 100 NE10 29.74F FOG FLORENCE CLOUDY 60 60 100 NE10 29.79F MYRTLE BEACH CLOUDY 65 64 97 NE6 29.78F N MYRTLE BEACH LGT RAIN 64 63 96 VRB7 29.78F FOG $$ GAZ063-065-086>088-099>101-113>116-118-119-134>141-150-240800- ...SOUTHEAST GEORGIA... CITY SKY/WX TMP DP RH WIND PRES REMARKS SAVANNAH ARPT CLOUDY 71 65 81 S12 29.70F HUNTER AAF MOCLDY 72 70 93 S8 29.67F FORT STEWART MOCLDY 68 65 90 CALM 29.67F STATESBORO CLOUDY 69 69 100 CALM 29.69F SYLVANIA CLOUDY 72 70 94 CALM 29.69F CLAXTON FAIR N/A N/A N/A CALM 29.69F FOG ...CSRA...CENTRAL AND FAR SOUTHEAST GEORGIA... CITY SKY/WX TMP DP RH WIND PRES REMARKS THOMSON LGT RAIN 56 54 94 E10 29.78F AUGUSTA-BUSH CLOUDY 61 58 90 NE12 29.72F AUGUSTA-DANIEL CLOUDY 59 54 83 N12 29.73F SWAINSBORO DRIZZLE 64 64 100 W5 29.71S VIDALIA LGT RAIN 64 63 94 CALM 29.71S EASTMAN CLOUDY 63 63 100 CALM 29.74S HAZLEHURST CLOUDY 64 64 100 CALM 29.70F ALMA CLOUDY 66 61 84 NW9 29.71F WAYCROSS CLOUDY 69 66 89 NW9 29.70F JESUP FAIR 68 64 88 CALM 29.70F BAXLEY CLOUDY 66 66 100 NW6 29.70F BRUNSWICK PTCLDY 72 70 94 S6 29.70F SAINT SIMONS MOCLDY 73 67 81 S7 29.70F $$ SCZ027-028-034-036>038-045-046-048>050-GAZ119-141-240800- ...LAKE AND SUPPLEMENTAL COASTAL OBSERVATIONS... STATION/POSITION TIME TEMP WIND PRES WAVE SWELL AIR SEA DIR/SP/G HT/PER HT/PER/DIR (UTC) (F) (DEG/KT/KT) (MB) (FT/S) (FT/S/D) WINYAH BAY 0645 72 110/ 6 1007.0F LAKE MURRAY 0720 56 10/ 4/ 7 1007.5F ACE BASIN NERRS 0630 73 180/ 3 1006.0F FORT PULASKI 0700 72 75 210/ 9/ 13 1006.0 SAPELO ISLAND 0645 73 170/ 14 1006.0F $$ ANZ835-935-AMZ111-154-330-350-352-354-370-450-454-472-240800- ...C-MAN AND BUOY OBSERVATIONS... STATION/POSITION TIME TEMP WIND PRES WAVE SWELL AIR SEA DIR/SP/G HT/PER HT/PER/DIR (UTC) (F) (DEG/KT/KT) (MB) (FT/S) (FT/S/D) BUOY 41004 0700 73 74 160/ 19/ 25 1006.6 BUOY 41008 0650 72 72 160/ 19/ 21 1005.2F 4/ 5 2/ 60/11 FOLLY BEACH CMAN 0700 74 160/ 19/ 21 1006.5F CAPERS NEARSHORE 0708 74 73 170/ 16/ 21 1005.9F FRIPP NEARSHORE 0708 73 73 200/ 17/ 23 1004.9F STATION/POSITION TIME TEMP WIND PRES WAVE SWELL AIR SEA DIR/SP/G HT/PER HT/PER/DIR (UTC) (F) (DEG/KT/KT) (MB) (FT/S) (FT/S/D) 5E ST. MARYS GA 0700 73 N/A 4/ 5 2/100/12 FRYING PAN BUOY 0710 75 74 160/ 17/ 21 1008.0 BUOY 41025 0650 72 79 120/ 8/ 12 1011.4F 8/11 8/ 50/11 CAPE LOOKOUT NC 0700 66 30/ 4/ 7 1010.3F BUOY 41002 0650 73 75 140/ 19/ 25 1011.2F 6/ 6 2/ 60/11 BUOY 41010 0710 75 78 110/ 21/ 27 1005.3 ST AUGUSTINE FL 0700 71 75 210/ 8/ 9 1007.7F $$

USA.gov is the U.S. government's official web portal to all federal, state and local government web resources and services.